Terminal Aerodrome Forecast
Issued by NWS Upton, NY

Home | Current Version | Previous Version | Text Only | Print | Product List | Glossary On
Versions: 1 2 3 4 5 6 7 8 9 10 11 12 13 14 15 16 17 18 19 20 21 22 23 24 25 26 27 28 29 30 31 32 33 34 35 36 37 38 39 40 41 42 43
000
FTUS41 KOKX 180200 AAA
TAFLGA
TAF AMD
KLGA 180237Z 1803/1824 10008KT P6SM FEW030 BKN250
     FM180500 06008KT P6SM SCT020 SCT250
     FM180900 05008KT P6SM BKN015 BKN250
     FM181400 05008KT P6SM SCT020 BKN250
     FM181800 14009KT P6SM FEW030 BKN250=

USA.gov is the U.S. government's official web portal to all federal, state and local government web resources and services.